Wind_Speed
7 6 5 5 5 3 4 5 6 7 9 9 9 9 8 10 13 14 14 14 13 13 13 13 14 13 13 13 13 12 9 7 6 6 6 5 5 5 4 3 2 2 1 2
8 7 7 8 8 8 8 8 8 7 8 9 9 10 9 10 12 13 14 15 14 14 13 13 13 13 13 13 13 12 11 9 7 6 6 5 5 5 6 4 3 2 2 2
8 8 9 10 10 11 9 9 9 10 9 9 11 12 10 12 12 12 13 14 13 14 13 13 13 13 13 13 13 12 11 9 7 6 5 5 5 5 5 5 4 3 3 3
9 10 11 11 12 11 10 10 10 11 11 10 11 13 11 10 12 12 13 13 13 13 12 13 13 13 13 13 12 11 10 9 8 7 6 5 5 5 5 5 5 4 4 3
10 12 12 12 11 11 11 10 11 11 12 11 13 13 12 12 14 13 13 13 13 13 13 12 13 13 13 13 12 11 11 9 8 8 7 6 7 7 6 6 6 5 5 5
12 12 13 12 11 12 12 10 11 12 11 11 12 13 13 13 12 14 14 13 14 13 13 12 13 13 13 13 12 11 11 9 9 8 8 8 8 8 7 6 6 6 6 6
11 12 14 13 12 12 12 12 13 13 13 10 13 15 14 13 13 15 16 14 13 13 13 13 13 13 12 13 13 12 11 10 10 9 8 8 8 7 7 7 7 8 7 7
12 13 15 15 15 13 12 13 14 13 11 10 12 15 15 14 14 15 16 16 14 13 13 14 14 13 13 13 13 12 12 11 10 9 9 9 8 8 8 8 8 8 8 8
14 15 15 17 16 15 14 13 13 15 15 14 13 14 16 15 16 17 17 16 16 16 14 14 14 14 13 13 13 13 12 12 12 10 9 9 9 8 8 8 9 9 9 9
17 16 14 17 18 16 15 14 14 14 15 15 14 14 14 16 17 19 19 18 17 18 16 15 15 15 15 15 14 13 13 12 12 11 10 10 10 10 10 11 11 11 11 11
18 17 15 16 18 17 16 16 16 16 16 15 16 15 15 16 17 19 19 19 19 19 18 16 17 17 16 15 15 14 14 13 12 12 12 12 11 11 12 13 14 14 13 14
20 19 19 18 19 19 17 17 16 17 18 17 18 20 17 17 17 19 20 20 20 19 20 19 19 19 18 16 16 17 16 14 13 14 14 13 13 14 14 14 15 15 15 16
22 21 19 18 16 17 18 18 17 17 18 18 17 22 21 20 20 20 21 21 21 21 21 20 19 19 19 18 17 18 16 15 15 15 16 16 16 16 17 17 18 18 18 18
22 21 20 19 16 17 18 18 18 18 19 20 20 22 22 21 21 22 22 22 22 22 21 21 20 20 20 20 19 19 19 18 18 17 18 18 18 19 19 20 20 21 20 20
23 23 23 21 19 20 20 19 19 20 20 22 22 23 22 21 21 23 24 24 24 22 22 22 21 21 21 21 20 21 21 20 20 20 20 20 20 21 21 22 21 21 21 21
24 25 24 23 22 23 23 22 21 22 22 23 23 25 25 25 24 24 25 25 25 24 23 22 22 22 22 22 22 23 23 22 21 21 21 22 22 22 23 23 22 22 22 22
24 26 26 25 23 25 25 24 24 24 24 24 26 26 26 27 26 25 26 25 24 24 24 23 23 24 24 23 24 24 23 23 23 22 23 23 23 23 23 23 23 23 23 22
24 25 25 25 25 27 25 23 23 25 24 25 27 26 27 28 28 27 27 26 25 24 24 24 24 24 24 24 24 24 24 24 24 24 24 24 24 24 24 24 24 24 24 24
25 25 24 23 24 25 24 24 23 24 25 25 26 27 28 27 27 27 26 26 25 25 25 24 24 24 24 24 25 25 24 25 25 25 26 26 26 26 26 25 26 26 26 26
24 25 24 24 25 25 24 23 22 24 27 27 27 26 26 27 27 26 25 26 25 26 26 25 25 25 25 25 25 25 25 25 26 26 27 27 27 27 27 27 27 27 27 27
25 25 25 24 24 25 25 24 24 26 27 26 26 26 26 26 27 27 26 26 26 26 26 25 25 25 26 26 26 26 26 25 26 26 26 26 27 27 27 27 27 27 27 28
24 24 24 23 24 24 25 25 26 27 26 25 26 26 26 26 27 27 26 26 26 26 26 25 26 26 27 26 26 27 26 26 26 26 26 26 27 27 27 26 27 28 29 29
24 23 23 24 25 26 27 28 27 28 27 26 26 26 26 26 27 28 27 27 26 26 27 27 27 26 26 26 27 27 27 27 26 26 26 26 26 26 25 26 27 28 28 29
25 26 26 25 25 26 26 27 28 28 29 29 28 28 27 28 28 28 28 27 27 27 27 28 26 26 26 26 26 27 27 27 26 25 25 25 25 25 26 27 27 27 28 28
25 25 26 27 28 28 27 28 28 28 29 28 28 28 28 29 29 28 28 27 27 28 27 27 27 28 27 26 26 26 26 26 25 24 24 25 26 26 26 27 27 27 28 29
24 25 25 26 26 26 27 26 27 28 28 28 28 28 29 29 29 28 27 27 27 27 27 27 28 27 26 26 25 25 25 25 25 25 25 26 26 26 26 26 27 27 28 28
Wind_Direction
216 220 223 235 249 243 251 253 258 278 290 294 303 305 316 329 334 338 340 345 348 352 353 357 1 3 5 8 11 12 10 7 5 9 15 24 25 26 29 35 48 48 34 10
218 221 233 240 242 248 248 246 248 256 272 283 292 301 308 315 324 328 331 336 340 344 350 351 354 358 1 2 6 7 10 9 4 2 4 9 11 15 14 10 5 12 357 337
226 224 235 243 247 249 252 252 252 261 265 277 283 290 299 304 311 318 323 328 334 338 343 346 349 352 355 356 360 2 3 6 6 4 5 0 1 5 2 1 359 344 339 333
226 229 238 244 247 244 247 250 255 261 265 263 276 283 290 301 307 314 318 322 327 332 338 340 343 346 348 349 352 357 357 356 359 356 351 350 346 343 342 342 341 332 334 334
222 234 240 246 250 251 247 250 255 262 266 265 268 273 290 301 305 310 315 318 319 325 332 336 339 340 342 343 343 346 349 348 345 346 341 334 334 330 326 325 323 327 334 334
228 234 240 247 251 252 250 250 256 260 261 266 277 278 281 290 300 303 303 305 310 318 324 330 333 335 337 338 336 336 340 339 338 335 331 326 323 322 320 319 323 323 326 327
239 246 250 248 252 254 256 261 260 261 261 267 275 272 274 279 286 296 298 300 307 310 315 318 324 327 328 331 330 327 329 330 327 323 320 318 316 317 315 311 315 322 319 312
239 250 258 256 252 252 255 258 264 269 268 265 271 275 282 285 288 289 293 296 299 303 307 311 314 317 320 324 325 320 320 321 319 317 315 314 310 309 309 307 304 310 316 315
231 239 248 259 257 252 249 249 260 268 272 265 262 271 281 283 286 287 287 293 299 301 299 305 309 311 311 316 318 313 311 313 312 307 305 305 307 304 304 303 300 298 299 302
233 238 242 256 258 255 253 247 246 250 265 270 266 267 270 283 283 285 287 289 291 294 297 299 303 308 309 309 309 308 306 305 305 302 297 297 297 295 294 296 298 295 294 295
238 243 241 252 259 258 256 252 249 253 258 265 274 266 270 277 279 281 287 290 290 290 292 293 296 300 303 303 304 302 302 299 299 296 293 293 291 292 292 294 295 293 291 292
238 243 246 247 256 260 257 252 250 258 263 262 269 275 273 276 276 278 282 285 286 286 288 289 289 294 295 295 299 300 296 294 293 293 293 291 289 288 288 289 290 289 287 288
240 239 244 248 251 260 259 253 250 250 258 263 266 270 272 273 273 276 279 281 283 284 285 285 287 290 291 292 295 295 295 294 288 287 288 288 285 285 287 287 286 285 285 285
240 237 238 241 241 249 258 259 256 251 250 255 258 265 270 270 271 274 276 277 280 282 282 284 287 286 287 290 292 293 291 291 288 284 283 284 284 284 287 287 285 284 283 284
239 239 238 236 238 245 252 254 254 254 252 254 258 260 263 265 268 272 275 276 277 280 281 282 283 284 285 285 288 290 289 289 287 283 282 283 284 285 286 287 286 284 283 285
243 241 241 241 241 245 250 252 255 256 256 259 259 260 260 265 265 269 274 276 279 282 282 282 282 282 283 286 286 288 286 286 286 282 281 282 283 284 285 284 282 284 284 287
247 247 246 247 248 251 251 252 253 255 256 257 257 260 265 267 268 270 274 279 281 282 282 282 283 284 282 282 284 285 285 284 285 284 283 283 283 283 282 281 281 282 284 286
252 251 250 250 251 253 255 254 258 260 260 260 260 263 267 267 269 270 274 277 280 281 282 282 282 283 282 282 283 283 283 284 284 284 284 282 282 283 282 280 280 283 283 285
254 253 251 250 253 259 258 256 255 256 258 258 261 264 268 266 268 270 272 277 279 281 281 282 284 285 284 283 283 282 282 282 284 284 283 282 282 283 282 281 280 281 281 282
255 254 252 251 253 257 259 259 261 261 258 259 263 266 267 268 268 271 273 276 278 280 280 280 281 282 281 281 282 281 282 283 285 285 283 281 280 282 282 282 282 282 282 283
255 253 252 252 253 255 255 257 261 262 262 264 263 265 268 270 271 272 274 277 278 278 278 278 279 280 279 279 280 281 282 284 285 284 282 283 282 282 282 282 282 283 284 285
251 252 253 252 252 254 258 259 259 261 261 262 263 265 268 269 271 273 274 276 277 277 277 278 279 279 279 279 280 280 281 282 283 284 284 284 283 281 280 281 282 283 285 286
252 251 253 253 249 252 256 259 259 260 260 261 264 267 269 271 271 273 274 275 277 276 276 277 278 279 279 279 279 279 278 279 280 282 282 283 283 282 281 282 283 285 286 288
256 253 253 257 257 255 258 261 260 259 261 264 266 269 273 272 272 273 273 275 276 276 277 276 277 278 278 279 279 278 278 278 279 281 282 283 284 284 284 285 286 287 287 287
256 256 254 254 256 258 261 262 264 263 261 266 269 271 272 273 273 273 272 272 274 275 276 276 277 277 276 275 277 278 279 280 280 281 283 285 285 285 286 287 288 289 289 289
256 257 257 258 258 259 260 261 263 266 265 266 269 271 273 273 272 273 273 274 273 273 274 275 276 276 275 277 279 280 281 280 281 282 283 284 286 286 286 288 289 289 291 291
Height
5912 5914 5915 5917 5918 5919 5921 5923 5923 5923 5922 5921 5920 5918 5917 5915 5914 5911 5909 5907 5905 5903 5902 5901 5899 5897 5895 5894 5892 5890 5888 5887 5886 5885 5885 5884 5884 5884 5883 5883 5883 5883 5884 5884
5912 5914 5915 5916 5917 5918 5920 5921 5921 5922 5921 5920 5919 5917 5917 5915 5914 5912 5910 5908 5906 5904 5903 5901 5900 5898 5896 5894 5893 5891 5889 5887 5886 5886 5886 5885 5885 5885 5884 5884 5884 5884 5884 5885
5910 5914 5914 5915 5916 5917 5918 5919 5920 5920 5919 5918 5918 5916 5915 5914 5912 5911 5910 5908 5906 5905 5903 5901 5900 5898 5896 5895 5893 5892 5890 5888 5887 5887 5886 5886 5886 5886 5885 5885 5885 5885 5885 5885
5908 5911 5912 5913 5914 5915 5916 5917 5918 5917 5917 5917 5917 5915 5914 5912 5911 5910 5909 5908 5906 5904 5903 5901 5900 5898 5897 5895 5893 5892 5890 5889 5888 5887 5887 5887 5887 5887 5886 5886 5886 5885 5885 5885
5907 5909 5910 5911 5912 5913 5913 5914 5915 5914 5913 5914 5914 5912 5912 5911 5911 5909 5907 5906 5906 5904 5902 5901 5900 5898 5897 5895 5894 5892 5891 5889 5888 5888 5887 5887 5887 5887 5887 5886 5886 5886 5886 5886
5904 5906 5907 5908 5909 5910 5911 5912 5912 5912 5912 5912 5912 5911 5910 5910 5909 5908 5906 5906 5905 5903 5902 5900 5899 5898 5896 5895 5893 5892 5891 5889 5888 5888 5887 5887 5887 5886 5886 5886 5886 5885 5885 5885
5902 5904 5905 5906 5907 5908 5909 5909 5910 5909 5909 5910 5911 5909 5908 5908 5908 5906 5905 5903 5902 5901 5900 5899 5898 5897 5895 5894 5892 5891 5890 5889 5888 5887 5887 5886 5886 5886 5885 5885 5885 5885 5885 5885
5901 5903 5903 5903 5904 5905 5906 5907 5908 5908 5907 5908 5908 5907 5907 5906 5905 5905 5903 5901 5900 5900 5899 5898 5897 5895 5894 5892 5891 5889 5888 5888 5887 5886 5886 5885 5885 5885 5884 5884 5884 5884 5884 5884
5898 5900 5900 5900 5901 5902 5903 5904 5906 5906 5904 5905 5905 5905 5904 5903 5903 5902 5901 5900 5899 5897 5896 5896 5894 5893 5891 5890 5889 5888 5887 5886 5885 5884 5884 5884 5884 5883 5883 5883 5883 5883 5883 5882
5892 5894 5896 5897 5897 5898 5900 5901 5902 5902 5902 5901 5901 5900 5900 5900 5900 5899 5898 5898 5897 5894 5892 5892 5891 5890 5889 5888 5886 5885 5884 5884 5883 5882 5882 5882 5882 5882 5882 5881 5882 5881 5881 5880
5888 5890 5893 5894 5893 5895 5896 5897 5897 5898 5898 5898 5898 5899 5897 5897 5897 5896 5894 5894 5893 5891 5890 5889 5888 5887 5886 5885 5883 5882 5881 5881 5880 5880 5880 5880 5880 5879 5879 5879 5879 5879 5878 5878
5884 5886 5887 5889 5891 5890 5891 5893 5894 5895 5894 5895 5895 5895 5892 5893 5892 5892 5891 5890 5889 5888 5887 5885 5884 5883 5882 5881 5880 5879 5878 5877 5877 5877 5877 5877 5877 5877 5877 5876 5876 5875 5875 5875
5878 5881 5883 5885 5888 5887 5886 5887 5889 5891 5892 5892 5892 5892 5888 5888 5888 5888 5887 5886 5885 5883 5882 5881 5880 5879 5878 5877 5876 5876 5874 5874 5874 5874 5874 5874 5873 5873 5873 5873 5872 5872 5871 5870
5873 5875 5878 5881 5881 5881 5881 5882 5883 5885 5886 5887 5886 5885 5884 5883 5883 5882 5882 5881 5880 5879 5878 5878 5877 5876 5875 5874 5873 5872 5871 5871 5870 5870 5870 5870 5870 5869 5869 5868 5867 5867 5866 5866
5867 5869 5871 5873 5875 5876 5876 5877 5878 5879 5880 5881 5880 5879 5878 5877 5877 5877 5876 5875 5875 5875 5873 5873 5873 5871 5870 5870 5869 5868 5867 5867 5866 5865 5865 5865 5865 5864 5863 5863 5862 5862 5861 5861
5860 5863 5865 5867 5869 5870 5870 5872 5873 5874 5874 5874 5874 5873 5872 5872 5871 5871 5870 5869 5870 5869 5868 5868 5867 5866 5866 5865 5864 5863 5862 5862 5861 5860 5860 5860 5860 5859 5858 5857 5857 5856 5856 5855
5855 5857 5859 5861 5863 5863 5864 5866 5867 5867 5867 5868 5866 5867 5865 5866 5865 5864 5864 5864 5864 5863 5863 5862 5862 5861 5861 5859 5858 5858 5857 5856 5855 5855 5854 5854 5854 5853 5852 5851 5850 5850 5850 5849
5849 5851 5852 5854 5856 5856 5860 5860 5860 5860 5860 5860 5859 5859 5858 5859 5859 5858 5858 5858 5858 5857 5857 5857 5856 5855 5855 5854 5853 5853 5852 5851 5850 5849 5849 5848 5848 5847 5846 5845 5845 5844 5843 5842
5843 5844 5846 5848 5849 5850 5853 5852 5853 5853 5853 5853 5853 5852 5852 5852 5851 5852 5852 5852 5852 5851 5851 5850 5850 5849 5848 5848 5847 5847 5846 5845 5844 5843 5843 5842 5841 5840 5839 5838 5838 5837 5836 5835
5837 5838 5840 5841 5843 5844 5846 5846 5845 5846 5845 5846 5845 5844 5845 5845 5845 5845 5845 5846 5845 5845 5844 5844 5844 5843 5842 5842 5841 5840 5840 5839 5838 5837 5836 5835 5834 5833 5833 5831 5831 5830 5829 5828
5831 5832 5833 5834 5835 5837 5838 5838 5839 5840 5840 5839 5838 5838 5838 5838 5839 5839 5839 5839 5838 5838 5838 5837 5837 5837 5836 5835 5834 5834 5833 5832 5831 5829 5829 5827 5826 5826 5825 5824 5823 5822 5821 5820
5824 5826 5827 5828 5830 5832 5831 5831 5832 5832 5832 5831 5831 5831 5832 5832 5832 5832 5833 5833 5832 5832 5831 5831 5831 5830 5829 5828 5827 5827 5826 5824 5823 5822 5821 5820 5819 5818 5817 5817 5816 5814 5813 5812
5818 5820 5820 5821 5823 5823 5823 5824 5824 5824 5824 5824 5824 5825 5826 5826 5826 5826 5826 5826 5825 5825 5824 5824 5823 5823 5822 5821 5820 5819 5818 5817 5816 5815 5814 5812 5811 5810 5809 5809 5808 5806 5805 5803
5811 5812 5813 5813 5814 5816 5817 5817 5817 5817 5817 5818 5818 5818 5818 5818 5818 5818 5819 5818 5818 5818 5817 5815 5814 5815 5815 5814 5813 5812 5810 5810 5809 5808 5807 5805 5804 5803 5802 5801 5799 5798 5796 5795
5805 5806 5807 5807 5809 5810 5810 5810 5810 5810 5811 5811 5811 5811 5811 5811 5811 5811 5811 5811 5811 5810 5810 5808 5808 5808 5808 5807 5805 5804 5803 5802 5801 5800 5799 5798 5797 5795 5794 5792 5791 5790 5788 5787
5799 5799 5800 5800 5802 5803 5803 5804 5804 5804 5804 5804 5804 5804 5804 5804 5804 5803 5803 5803 5803 5803 5802 5802 5801 5801 5800 5799 5797 5796 5795 5794 5793 5793 5792 5791 5789 5788 5786 5785 5784 5782 5781 5779